To NAV CANADA Home Page Login to a new session Search on AWWS site Feedback and Comments Disclaimer Vers la page française équivalente Tips FAQ What's new on the site To the Forecasts and Observations / NOTAM section To "File a Flight Plan" website Publications and other links Update of the User's profile FIC Telephone Numbers My Weather Data Folder Route Weather Data Regional Weather Data Local Weather Data To the Forecasts and Observations / NOTAM section
Request Generated 07/26/2017 at 04:29:23 UTC . Weather information available at that time is displayed.

METAR/TAF

ROBERVAL/QC    

METAR CYRJ 260400Z 23005KT 25SM SKC 16/07 A3014 RMK SLP209 DENSITY
ALT 600FT=
METAR CYRJ 260300Z 23007KT 25SM SKC 17/07 A3014 RMK SLP209 DENSITY
ALT 700FT=
METAR CYRJ 260200Z 23005KT 25SM FEW100 FEW220 16/06 A3013 RMK AC1CI1
AC TR CI TR SLP208 DENSITY ALT 600FT=

*** REMARK        : Forecast period has ended; this was the last TAF issued
*** REMARQUE : La période de prévision est échue; ceci était le dernier TAF qui a été émis
TAF CYRJ 251938Z 2520/2602 VRB03KT P6SM FEW025
BECMG 2522/2524 22004KT
RMK NXT FCST WILL BE ISSUED AT 261145Z=
Your time UTC time
Weather data provided by Environment Canada and NAV CANADA